Greenville, TX

12:23 PM CST on November 18, 2017 (GMT -0600)
Majors

Weather History for KGVT - March, 2014

Change the Weather History Date:

Friday, March 7, 2014

  Actual Average Record
Temperature  
Mean Temperature 47 °F -  
Max Temperature 64 °F 60 °F 77 °F (2006)
Min Temperature 30 °F 45 °F 28 °F (2015)
Degree Days  
Heating Degree Days 18    
Moisture  
Dew Point 34 °F    
Average Humidity 65    
Maximum Humidity 100    
Minimum Humidity 30    
Precipitation  
Precipitation 0.00 in - - ()
Sea Level Pressure  
Sea Level Pressure 29.97 in    
Wind  
Wind Speed 5 mph (SSE)    
Max Wind Speed 18 mph    
Max Gust Speed 26 mph    
Visibility 8 miles    
Events      
Averages and records for this station are not official NWS values.
T = Trace of Precipitation, MM = Missing Value Source: NWS Daily Summary

Daily Weather History Graph

Daily Weather History Graph

Search for Another Location

Airport or City:

Trip Planner

Search our weather history database for the weather conditions in past years. The results will help you decide how hot, cold, wet, or windy it might be!

Date:

Astronomy

Mar. 07, 2014 Rise Set
Actual Time 6:44 AM CST 6:26 PM CST
Civil Twilight 6:20 AM CST 6:50 PM CST
Nautical Twilight 5:51 AM CST 7:19 PM CST
Astronomical Twilight 5:22 AM CST 7:48 PM CST
Moon 10:57 AM CST (3/7) 12:13 AM CST (3/7)
Length of Visible Light 12h 30m
Length of Day
11h 41m
Waxing Crescent, 42% of the Moon is Illuminated
Mar 7
Waxing Crescent
Mar 8
First Quarter
Mar 16
Full
Mar 23
Last Quarter
Mar 30
New

Hourly Weather History & Observations

Time (CST) Temp. Windchill Dew Point Humidity Pressure Visibility Wind Dir Wind Speed Gust Speed Precip Events Conditions
12:15 AM 32.0 °F - 32.0 °F 100% 30.05 in 5.0 mi Calm Calm - N/A   Clear
12:35 AM 35.6 °F - 33.8 °F 93% 30.04 in 7.0 mi Calm Calm - N/A   Clear
12:55 AM 33.8 °F - 32.0 °F 93% 30.04 in 7.0 mi Calm Calm - N/A   Clear
1:15 AM 33.8 °F - 32.0 °F 93% 30.05 in 7.0 mi Calm Calm - N/A   Clear
1:35 AM 32.0 °F - 32.0 °F 100% 30.04 in 5.0 mi Calm Calm - N/A   Clear
1:55 AM 32.0 °F - 30.2 °F 93% 30.04 in 2.5 mi Calm Calm - N/A   Clear
2:15 AM 32.0 °F - 30.2 °F 93% 30.03 in 3.0 mi Calm Calm - N/A   Clear
2:35 AM 30.2 °F - 28.4 °F 93% 30.02 in 4.0 mi Calm Calm - N/A   Clear
2:55 AM 33.8 °F - 32.0 °F 93% 30.02 in 4.0 mi Calm Calm - N/A   Clear
3:15 AM 33.8 °F - 32.0 °F 93% 30.02 in 2.5 mi Calm Calm - N/A   Clear
3:35 AM 32.0 °F - 32.0 °F 100% 30.02 in 3.0 mi Calm Calm - N/A   Clear
3:55 AM 32.0 °F - 30.2 °F 93% 30.02 in 1.0 mi Calm Calm - N/A   Mist
4:15 AM 30.2 °F - 28.4 °F 93% 30.02 in 5.0 mi Calm Calm - N/A   Scattered Clouds
4:35 AM 30.2 °F - 28.4 °F 93% 30.02 in 5.0 mi Calm Calm - N/A   Clear
4:55 AM 32.0 °F - 30.2 °F 93% 30.02 in 4.0 mi Calm Calm - N/A   Clear
5:15 AM 32.0 °F - 30.2 °F 93% 30.03 in 3.0 mi Calm Calm - N/A   Clear
5:35 AM 32.0 °F 28.7 °F 30.2 °F 93% 30.02 in 4.0 mi ESE 3.5 mph - N/A   Clear
5:55 AM 32.0 °F - 32.0 °F 100% 30.02 in 4.0 mi Calm Calm - N/A   Clear
6:15 AM 32.0 °F - 32.0 °F 100% 30.03 in 5.0 mi Calm Calm - N/A   Clear
6:35 AM 32.0 °F - 32.0 °F 100% 30.03 in 4.0 mi Calm Calm - N/A   Clear
6:55 AM 32.0 °F - 32.0 °F 100% 30.02 in 2.5 mi Calm Calm - N/A   Clear
7:15 AM 33.8 °F 30.8 °F 32.0 °F 93% 30.03 in 4.0 mi ESE 3.5 mph - N/A   Clear
7:35 AM 37.4 °F - 35.6 °F 93% 30.04 in 4.0 mi Calm Calm - N/A   Clear
7:55 AM 41.0 °F 38.0 °F 37.4 °F 87% 30.05 in 5.0 mi SSE 4.6 mph - N/A   Clear
8:15 AM 41.0 °F 38.0 °F 37.4 °F 87% 30.04 in 7.0 mi SSE 4.6 mph - N/A   Clear
8:35 AM 44.6 °F 40.2 °F 39.2 °F 81% 30.04 in 7.0 mi SSE 8.1 mph - N/A   Clear
8:55 AM 46.4 °F 41.5 °F 41.0 °F 81% 30.04 in 10.0 mi SSE 10.4 mph - N/A   Clear
9:15 AM 50.0 °F - 37.4 °F 62% 30.04 in 10.0 mi SSE 13.8 mph - N/A   Unknown
9:35 AM 50.0 °F - 37.4 °F 62% 30.04 in 10.0 mi SSE 10.4 mph - N/A   Unknown
9:55 AM 51.8 °F - 35.6 °F 54% 30.04 in 10.0 mi SSE 11.5 mph - N/A   Unknown
10:15 AM 51.8 °F - 37.4 °F 58% 30.04 in 10.0 mi SSE 10.4 mph - N/A   Clear
10:35 AM 51.8 °F - 37.4 °F 58% 30.03 in 10.0 mi SSE 9.2 mph - N/A   Clear
10:55 AM 55.4 °F - 35.6 °F 47% 30.03 in 10.0 mi South 16.1 mph 19.6 mph N/A   Clear
11:15 AM 55.4 °F - 33.8 °F 44% 30.02 in 10.0 mi South 15.0 mph 19.6 mph N/A   Unknown
11:35 AM 59.0 °F - 35.6 °F 42% 30.01 in 10.0 mi SSE 13.8 mph 18.4 mph N/A   Unknown
11:55 AM 59.0 °F - 33.8 °F 39% 29.99 in 10.0 mi SSE 18.4 mph 26.5 mph N/A   Unknown
12:15 PM 59.0 °F - 33.8 °F 39% 29.99 in 10.0 mi South 18.4 mph 23.0 mph N/A   Unknown
12:35 PM 59.0 °F - 35.6 °F 42% 29.97 in 10.0 mi South 17.3 mph 24.2 mph N/A   Clear
12:55 PM 59.0 °F - 35.6 °F 42% 29.96 in 10.0 mi SSE 17.3 mph 25.3 mph N/A   Clear
1:15 PM 60.8 °F - 33.8 °F 36% 29.93 in 10.0 mi SSE 18.4 mph 21.9 mph N/A   Clear
1:35 PM 60.8 °F - 33.8 °F 36% 29.93 in 10.0 mi SSE 15.0 mph 23.0 mph N/A   Clear
1:55 PM 62.6 °F - 33.8 °F 34% 29.92 in 10.0 mi South 16.1 mph 24.2 mph N/A   Clear
2:15 PM 64.4 °F - 35.6 °F 34% 29.91 in 10.0 mi SSE 13.8 mph 19.6 mph N/A   Clear
2:35 PM 64.4 °F - 33.8 °F 32% 29.90 in 10.0 mi SSE 13.8 mph 20.7 mph N/A   Clear
2:55 PM 64.4 °F - 33.8 °F 32% 29.89 in 10.0 mi South 15.0 mph 20.7 mph N/A   Clear
3:15 PM 64.4 °F - 33.8 °F 32% 29.89 in 10.0 mi South 16.1 mph - N/A   Clear
3:35 PM 64.4 °F - 33.8 °F 32% 29.89 in 10.0 mi South 12.7 mph 18.4 mph N/A   Clear
3:55 PM 64.4 °F - 33.8 °F 32% 29.88 in 10.0 mi SSE 13.8 mph - N/A   Clear
4:15 PM 64.4 °F - 32.0 °F 30% 29.88 in 10.0 mi South 15.0 mph - N/A   Clear
4:35 PM 64.4 °F - 33.8 °F 32% 29.88 in 10.0 mi SE 13.8 mph - N/A   Clear
4:55 PM 64.4 °F - 33.8 °F 32% 29.87 in 10.0 mi SSE 12.7 mph - N/A   Clear
5:15 PM 62.6 °F - 33.8 °F 34% 29.87 in 10.0 mi SSE 11.5 mph - N/A   Clear
5:35 PM 62.6 °F - 33.8 °F 34% 29.86 in 10.0 mi SSE 10.4 mph - N/A   Clear
5:55 PM 60.8 °F - 33.8 °F 36% 29.87 in 10.0 mi SSE 10.4 mph - N/A   Clear
6:15 PM 59.0 °F - 35.6 °F 42% 29.86 in 10.0 mi SSE 9.2 mph - N/A   Clear
6:35 PM 55.4 °F - 35.6 °F 47% 29.87 in 10.0 mi SSE 6.9 mph - N/A   Clear
6:55 PM 53.6 °F - 35.6 °F 51% 29.87 in 10.0 mi SSE 5.8 mph - N/A   Clear
7:15 PM 50.0 °F - 35.6 °F 58% 29.88 in 10.0 mi SSE 5.8 mph - N/A   Clear
7:35 PM 51.8 °F - 35.6 °F 54% 29.89 in 10.0 mi South 8.1 mph - N/A   Clear
7:55 PM 53.6 °F - 35.6 °F 51% 29.90 in 10.0 mi South 8.1 mph - N/A   Clear
8:15 PM 53.6 °F - 35.6 °F 51% 29.90 in 10.0 mi SSE 8.1 mph - N/A   Clear
8:35 PM 51.8 °F - 35.6 °F 54% 29.90 in 10.0 mi SSE 5.8 mph - N/A   Clear
8:55 PM 50.0 °F - 35.6 °F 58% 29.91 in 10.0 mi SSE 4.6 mph - N/A   Clear
9:15 PM 48.2 °F - 35.6 °F 62% 29.91 in 10.0 mi SE 6.9 mph - N/A   Clear
9:35 PM 46.4 °F 42.4 °F 37.4 °F 71% 29.91 in 10.0 mi SE 8.1 mph - N/A   Clear
9:55 PM 46.4 °F 42.9 °F 37.4 °F 71% 29.91 in 10.0 mi SE 6.9 mph - N/A   Clear
10:15 PM 48.2 °F - 39.2 °F 71% 29.90 in 10.0 mi SE 8.1 mph - N/A   Clear
10:35 PM 50.0 °F - 39.2 °F 66% 29.90 in 10.0 mi SE 6.9 mph - N/A   Clear
10:55 PM 50.0 °F - 39.2 °F 66% 29.90 in 10.0 mi SE 8.1 mph - N/A   Clear
11:15 PM 50.0 °F - 41.0 °F 71% 29.90 in 10.0 mi SSE 6.9 mph - N/A   Clear
11:35 PM 50.0 °F - 39.2 °F 66% 29.90 in 10.0 mi SSE 8.1 mph - N/A   Clear
11:55 PM 50.0 °F - 41.0 °F 71% 29.91 in 10.0 mi SSE 6.9 mph - N/A   Clear